Weather History for Big Bear City, CA

Change the Weather History Date:

Saturday, October 4, 2014

  Actual Average (KBUO) Record (KBUO)
Temperature  
Mean Temperature 52 °F -  
Max Temperature 71 °F 80 °F 95 °F (1996)
Min Temperature 33 °F 53 °F 50 °F (1999)
Degree Days  
Heating Degree Days 13    
Growing Degree Days 2 (Base 50)    
Moisture  
Dew Point 14 °F    
Average Humidity 26    
Maximum Humidity 44    
Minimum Humidity 10    
Precipitation  
Precipitation 0.00 in - - ()
Sea Level Pressure  
Sea Level Pressure 30.35 in    
Wind  
Wind Speed 2 mph (ENE)    
Max Wind Speed 12 mph    
Max Gust Speed -    
Visibility 10 miles    
Events      
Averages and records for this station are not official NWS values.
T = Trace of Precipitation, MM = Missing Value Source: NWS Daily Summary

Daily Weather History Graph

Daily Weather History Graph

Search for Another Location

Airport:

Trip Planner

Search our weather history database for the weather conditions in past years. The results will help you decide how hot, cold, wet, or windy it might be!

Date:

Astronomy

Oct. 04, 2014 Rise Set
Actual Time 6:44 AM PDT 6:27 PM PDT
Civil Twilight 6:19 AM PDT 6:52 PM PDT
Nautical Twilight 5:50 AM PDT 7:21 PM PDT
Astronomical Twilight 5:20 AM PDT 7:50 PM PDT
Moon 3:58 PM PDT (10/4) 2:27 AM PDT (10/4)
Length of Visible Light 12h 33m
Length of Day
11h 43m
Waxing Gibbous, 82% of the Moon is Illuminated
Oct 4
Waxing Gibbous
Oct 8
Full
Oct 15
Last Quarter
Oct 23
New
Oct 30
First Quarter

Hourly Weather History & Observations

Time (PDT) Temp. Windchill Dew Point Humidity Pressure Visibility Wind Dir Wind Speed Gust Speed Precip Events Conditions
12:15 AM 39.2 °F - 10.4 °F 31% 30.40 in 10.0 mi Calm Calm - N/A   Clear
12:35 AM 37.4 °F - 10.4 °F 33% 30.39 in 10.0 mi Calm Calm - N/A   Clear
12:55 AM 37.4 °F - 10.4 °F 33% 30.40 in 10.0 mi Calm Calm - N/A   Clear
1:15 AM 37.4 °F - 10.4 °F 33% 30.39 in 10.0 mi Calm Calm - N/A   Clear
1:35 AM 37.4 °F - 10.4 °F 33% 30.40 in 10.0 mi Calm Calm - N/A   Clear
1:55 AM 37.4 °F - 10.4 °F 33% 30.39 in 10.0 mi Calm Calm - N/A   Clear
2:15 AM 37.4 °F - 10.4 °F 33% 30.39 in 10.0 mi Calm Calm - N/A   Clear
2:35 AM 37.4 °F - 10.4 °F 33% 30.39 in 10.0 mi Calm Calm - N/A   Clear
2:55 AM 37.4 °F - 12.2 °F 36% 30.39 in 10.0 mi Calm Calm - N/A   Clear
3:15 AM 35.6 °F - 12.2 °F 38% 30.39 in 10.0 mi Calm Calm - N/A   Clear
3:35 AM 35.6 °F - 12.2 °F 38% 30.38 in 10.0 mi Calm Calm - N/A   Clear
3:55 AM 35.6 °F - 12.2 °F 38% 30.38 in 10.0 mi Calm Calm - N/A   Clear
4:15 AM 35.6 °F - 12.2 °F 38% 30.38 in 10.0 mi Calm Calm - N/A   Clear
4:35 AM 35.6 °F - 12.2 °F 38% 30.38 in 10.0 mi Calm Calm - N/A   Clear
4:55 AM 35.6 °F - 12.2 °F 38% 30.38 in 10.0 mi Calm Calm - N/A   Clear
5:15 AM 33.8 °F - 12.2 °F 41% 30.38 in 10.0 mi Calm Calm - N/A   Clear
5:35 AM 33.8 °F - 12.2 °F 41% 30.38 in 10.0 mi Calm Calm - N/A   Clear
5:55 AM 33.8 °F - 12.2 °F 41% 30.39 in 10.0 mi Calm Calm - N/A   Clear
6:15 AM 33.8 °F - 14.0 °F 44% 30.39 in 10.0 mi Calm Calm - N/A   Clear
6:35 AM 33.8 °F - 14.0 °F 44% 30.39 in 10.0 mi Calm Calm - N/A   Clear
6:55 AM 33.8 °F - 14.0 °F 44% 30.39 in 10.0 mi Calm Calm - N/A   Clear
7:15 AM 35.6 °F - 14.0 °F 41% 30.39 in 10.0 mi Calm Calm - N/A   Clear
7:35 AM 37.4 °F - 14.0 °F 38% 30.39 in 10.0 mi Calm Calm - N/A   Clear
7:55 AM 37.4 °F - 15.8 °F 41% 30.39 in 10.0 mi Calm Calm - N/A   Clear
8:15 AM 41.0 °F 39.0 °F 17.6 °F 39% 30.39 in 10.0 mi East 3.5 mph - N/A   Clear
8:35 AM 44.6 °F - 19.4 °F 37% 30.39 in 10.0 mi Calm Calm - N/A   Clear
8:55 AM 50.0 °F - 17.6 °F 28% 30.39 in 10.0 mi East 3.5 mph - N/A   Clear
9:15 AM 55.4 °F - 19.4 °F 25% 30.39 in 10.0 mi ENE 3.5 mph - N/A   Clear
9:35 AM 62.6 °F - 21.2 °F 20% 30.39 in 10.0 mi ENE 3.5 mph - N/A   Clear
9:55 AM 64.4 °F - 17.6 °F 16% 30.38 in 10.0 mi East 5.8 mph - N/A   Clear
10:15 AM 66.2 °F - 15.8 °F 14% 30.38 in 10.0 mi East 5.8 mph - N/A   Clear
10:35 AM 66.2 °F - 14.0 °F 13% 30.38 in 10.0 mi NE 8.1 mph - N/A   Clear
10:55 AM 68.0 °F - 15.8 °F 13% 30.38 in 10.0 mi NE 6.9 mph - N/A   Clear
11:15 AM 68.0 °F - 17.6 °F 15% 30.38 in 10.0 mi ENE 6.9 mph - N/A   Clear
11:55 AM 69.8 °F - 14.0 °F 12% 30.37 in 10.0 mi East 8.1 mph - N/A   Clear
12:15 PM 69.8 °F - 12.2 °F 11% 30.37 in 10.0 mi ENE 9.2 mph - N/A   Clear
12:35 PM 71.6 °F - 14.0 °F 11% 30.36 in 10.0 mi ENE 11.5 mph - N/A   Clear
12:55 PM 71.6 °F - 12.2 °F 10% 30.36 in 10.0 mi NE 6.9 mph - N/A   Clear
1:15 PM 69.8 °F - 14.0 °F 12% 30.35 in 10.0 mi NE 6.9 mph - N/A   Clear
1:35 PM 71.6 °F - 14.0 °F 11% 30.34 in 10.0 mi NE 8.1 mph - N/A   Clear
1:55 PM 71.6 °F - 14.0 °F 11% 30.33 in 10.0 mi ENE 10.4 mph - N/A   Clear
2:15 PM 71.6 °F - 15.8 °F 12% 30.32 in 10.0 mi ENE 9.2 mph - N/A   Clear
2:35 PM 69.8 °F - 15.8 °F 13% 30.32 in 10.0 mi ENE 5.8 mph - N/A   Clear
2:55 PM 71.6 °F - 15.8 °F 12% 30.31 in 10.0 mi East 9.2 mph - N/A   Clear
3:15 PM 71.6 °F - 15.8 °F 12% 30.31 in 10.0 mi ENE 5.8 mph - N/A   Clear
3:35 PM 71.6 °F - 14.0 °F 11% 30.31 in 10.0 mi NE 8.1 mph - N/A   Clear
3:55 PM 71.6 °F - 14.0 °F 11% 30.31 in 10.0 mi ENE 8.1 mph - N/A   Clear
4:15 PM 71.6 °F - 14.0 °F 11% 30.30 in 10.0 mi NE 6.9 mph - N/A   Clear
4:35 PM 71.6 °F - 14.0 °F 11% 30.30 in 10.0 mi ENE 8.1 mph - N/A   Clear
4:55 PM 69.8 °F - 12.2 °F 11% 30.30 in 10.0 mi ENE 6.9 mph - N/A   Clear
5:15 PM 69.8 °F - 12.2 °F 11% 30.30 in 10.0 mi NNE 5.8 mph - N/A   Clear
5:35 PM 69.8 °F - 12.2 °F 11% 30.30 in 10.0 mi ENE 5.8 mph - N/A   Clear
5:55 PM 69.8 °F - 12.2 °F 11% 30.30 in 10.0 mi NE 4.6 mph - N/A   Clear
6:15 PM 66.2 °F - 14.0 °F 13% 30.30 in 10.0 mi East 4.6 mph - N/A   Clear
6:55 PM 59.0 °F - 14.0 °F 17% 30.30 in 10.0 mi Calm Calm - N/A   Clear
7:15 PM 55.4 °F - 14.0 °F 20% 30.31 in 10.0 mi Calm Calm - N/A   Clear
7:35 PM 53.6 °F - 12.2 °F 19% 30.31 in 10.0 mi Calm Calm - N/A   Clear
7:55 PM 51.8 °F - 12.2 °F 21% 30.31 in 10.0 mi Calm Calm - N/A   Clear
8:15 PM 48.2 °F - 12.2 °F 24% 30.32 in 10.0 mi Calm Calm - N/A   Clear
8:35 PM 46.4 °F - 12.2 °F 25% 30.32 in 10.0 mi Calm Calm - N/A   Clear
8:55 PM 44.6 °F - 12.2 °F 27% 30.32 in 10.0 mi Calm Calm - N/A   Clear
9:15 PM 44.6 °F - 12.2 °F 27% 30.33 in 10.0 mi Calm Calm - N/A   Clear
9:35 PM 42.8 °F - 14.0 °F 31% 30.33 in 10.0 mi Calm Calm - N/A   Clear
9:55 PM 42.8 °F - 14.0 °F 31% 30.33 in 10.0 mi Calm Calm - N/A   Clear
10:15 PM 41.0 °F - 14.0 °F 33% 30.33 in 10.0 mi Calm Calm - N/A   Clear
10:35 PM 41.0 °F - 14.0 °F 33% 30.33 in 10.0 mi Calm Calm - N/A   Clear
10:55 PM 39.2 °F - 14.0 °F 36% 30.33 in 10.0 mi Calm Calm - N/A   Clear
11:15 PM 39.2 °F - 14.0 °F 36% 30.33 in 10.0 mi Calm Calm - N/A   Clear
11:35 PM 37.4 °F - 14.0 °F 38% 30.33 in 10.0 mi Calm Calm - N/A   Clear
11:55 PM 37.4 °F - 14.0 °F 38% 30.33 in 10.0 mi Calm Calm - N/A   Clear